This demonstration page uses our WeatherBlox Daily Observations layout. Learn more.

Left ArrowRight Arrow

38.88101, -77.10428

Hourly Observations for January 9, 2022

Temp ( °F °C ) Dew Point ( °F °C ) Humidity (%) Winds ( mph kmh ) Pressure ( in mb ) Visibility ( mi km ) Precip ( " mm )
12:52 am 00:52 Mostly Cloudy 31 -0.6 18 -7.8 59 59 SSW 12 19 30.51 1033 10 16 0.00 0.00
1:52 am 01:52 Mostly Cloudy 32 0 18 -7.8 56 56 S 13 20 30.49 1033 10 16 0.00 0.00
2:52 am 02:52 Mostly Cloudy 32 0 19 -7.2 59 59 S 14 22 30.46 1031 10 16 0.00 0.00
3:52 am 03:52 Cloudy 32 0 19 -7.2 59 59 S 16 26 30.41 1030 10 16 0.00 0.00
4:52 am 04:52 Mostly Cloudy 32 0 19 -7.2 59 59 S 12 19 30.37 1029 10 16 0.00 0.00
5:52 am 05:52 Mostly Cloudy 32 0 20 -6.7 61 61 SSW 13 20 30.35 1028 10 16 0.00 0.00
6:52 am 06:52 Mostly Cloudy 33 0.6 20 -6.7 58 58 S 13 20 30.33 1027 10 16 0.00 0.00
7:52 am 07:52 Mostly Cloudy 34 1.1 21 -6.1 59 59 S 13 20 30.30 1026 10 16 0.00 0.00
8:52 am 08:52 Cloudy 36 2.2 22 -5.6 57 57 S 12 19 30.29 1026 10 16 0.00 0.00
9:52 am 09:52 Mostly Cloudy 38 3.3 25 -3.9 60 60 SW 5 7 30.28 1026 10 16 0.00 0.00
10:52 am 10:52 Cloudy with Light Rain 42 5.6 30 -1.1 62 62 SSW 12 19 30.25 1025 10 16 0.00 0.00
11:52 am 11:52 Cloudy with Light Rain 41 5 34 1.1 76 76 S 10 17 30.21 1023 8 13 0.01 0.25
12:52 pm 12:52 Cloudy with Rain 41 5 35 1.7 79 79 SSW 10 17 30.16 1022 4 6 0.04 1.02
1:52 pm 13:52 Cloudy with Light Rain 42 5.6 36 2.2 79 79 SSW 14 22 30.13 1020 6 10 0.06 1.52
2:52 pm 14:52 Cloudy with Rain 41 5 36 2.2 82 82 SSW 12 19 30.10 1019 4 6 0.10 2.54
3:52 pm 15:52 Cloudy with Light Rain 41 5 37 2.8 86 86 SSW 8 13 30.09 1019 5 8 0.08 2.03
4:52 pm 16:52 Cloudy with Light Rain 41 5 37 2.8 86 86 S 9 15 30.08 1019 7 11 0.07 1.78
5:52 pm 17:52 Cloudy with Light Rain 40 4.4 38 3.3 93 93 S 6 9 30.07 1018 5 8 0.05 1.27
6:52 pm 18:52 Cloudy with Light Rain 41 5 38 3.3 89 89 S 7 11 30.06 1018 5 8 0.10 2.54
7:52 pm 19:52 Cloudy with Light Rain 41 5 39 3.9 93 93 S 8 13 30.06 1018 6 10 0.04 1.02
7:59 pm 19:59 Cloudy with Light Rain 42 5.6 39 3.9 89 89 NNW 13 20 30.08 1019 6 10 0.01 0.25
8:52 pm 20:52 Cloudy with Light Rain 45 7.2 41 5 86 86 WSW 7 11 30.07 1018 10 16 0.03 0.76
8:57 pm 20:57 Cloudy with Light Rain 45 7.2 42 5.6 90 90 SW 7 11 30.08 1019 10 16 0.00 0.00
9:52 pm 21:52 Cloudy 45 7.2 41 5 86 86 SW 3 6 30.08 1019 10 16 0.00 0.00
10:52 pm 22:52 Cloudy 47 8.3 36 2.2 66 66 NW 14 22 30.08 1019 10 16 0.00 0.00
11:52 pm 23:52 Cloudy 44 6.7 33 0.6 65 65 NNW 18 30 30.11 1020 10 16 0.00 0.00

Powered by AerisWeather